sat.trackr.live / text

‹ back to catalog

STARLINK-6173

NORAD 56385 · 2023-061M

PAYLOAD ACTIVE UNKNOWN

§ Identity

Operator
Country
US
Launch date
2023-05-04
Launch site
AFETR
Launch vehicle
Mass (kg)
RCS (m²)

Purposes: comms

External: N2YO · Heavens-Above · Gunter

§ Orbital elements

Epoch: 2026-05-25T05:21:02.340000Z

Period
94.27 min
Inclination
43.0034°
Eccentricity
0.0001282
Mean motion
15.27579655 rev/d
Perigee alt
482.2 km
Apogee alt
483.9 km
Semi-major
6,861.2 km
B*
3.8339e-5
RAAN
125.7431°
Arg perigee
265.5219°
Mean anomaly
94.5486°
Rev number
16,845

§ Raw data

STARLINK-61731 56385U 23061M   26145.22294375  .00000793  00000+0  38339-4 0  99992 56385  43.0034 125.7431 0001282 265.5219  94.5486 15.27579655168451

JSON: /api/v1/satellites/56385 · /tle

For live sub-satellite position, see the globe view (requires WebGL).

§ Visibility from observer

Set your observer location to see the next 7 days of passes ≥ 10°. The values pass through the URL so the page stays shareable.

No JS? Fill the form by hand. The geolocation button needs JavaScript.